Погода в Болльнесе

Швеция     61°20′50″N   16°23′43″E
темп.,
°C
ветер,
м/с
пор.,
м/с
влажн.,
%
обл.,
%
осадки,
мм/ч
давл.,
гПа
погр.,
м
24 января, вс
вс2401:00−4юз229196 0.0 99458
04:00−4зюз1291100 0.0 99456
07:00−6з129395 0.0 99421
10:00−4з269686 0.0 995156
13:00−1сз269353 0.0 996328
16:00−6сз009510 0.0 99821
19:00−7с129444 0.0 99821
22:00−9ссз1194100 0.0 99921
25 января, пн
пн2501:00−9сз2295100 0.0 99977
04:00−7ссз2596100 0.1 998199
07:00−6ссз3794100 0.2 997337
10:00−7ссз3992100 0.1 997423
13:00−7сз3892100 0.3 996408
16:00−7сз3994100 0.8 996489
19:00−7сз2793100 1.4 998331
22:00−8зсз2593100 0.1 999167
26 января, вт
вт2601:00−10зсз229397 0.1 100153
04:00−11зсз229244 0.0 100240
07:00−12сз229221 0.0 100337
10:00−11сз229313 0.0 100469
13:00−9сз269041 0.0 1005284
16:00−10ссз2293100 0.0 100534
19:00−11сз2293100 0.0 100651
22:00−12сз2493100 0.0 100692
27 января, ср
ср2701:00−11сз2591100 0.0 1005155
04:00−11сз2790100 0.0 1004267
07:00−10сз3794100 0.4 1004342
10:00−9сз3694100 0.6 1003325
13:00−9сз3794100 1.6 1003360
16:00−9сз3795100 0.9 1002418
19:00−9сз3794100 1.7 1002391
22:00−9сз3895100 0.9 1002363
28 января, чт
чт2801:00−9сз3795100 1.9 1002358
04:00−9сз3895100 1.2 1001381
07:00−9сз3995100 2.5 1001386
10:00−8сз4995100 1.4 1001413
13:00−8сз4894100 2.6 1001375
16:00−8сз4995100 0.9 1001386
19:00−9сз3895100 1.8 1001360
22:00−10сз3795100 0.3 1001306